Williams, AZ

2:54 AM MST on August 22, 2017 (GMT -0700)
Williams

Weather History for KCMR - October, 2012

Change the Weather History Date:

Thursday, October 4, 2012

  Actual Average (K40G) Record (K40G)
Temperature  
Mean Temperature 60 °F -  
Max Temperature 73 °F 69 °F 80 °F (2001)
Min Temperature 46 °F 59 °F 57 °F (1996)
Degree Days  
Heating Degree Days 6    
Growing Degree Days 10 (Base 50)    
Moisture  
Dew Point 26 °F    
Average Humidity 27    
Maximum Humidity 46    
Minimum Humidity 13    
Precipitation  
Precipitation 0.00 in - - ()
Sea Level Pressure  
Sea Level Pressure 30.36 in    
Wind  
Wind Speed 9 mph (SSW)    
Max Wind Speed 22 mph    
Max Gust Speed 31 mph    
Visibility 10 miles    
Events      
Averages and records for this station are not official NWS values.
T = Trace of Precipitation, MM = Missing Value Source: NWS Daily Summary

Daily Weather History Graph

Daily Weather History Graph

Search for Another Location

Airport or City:

Trip Planner

Search our weather history database for the weather conditions in past years. The results will help you decide how hot, cold, wet, or windy it might be!

Date:

Astronomy

Oct. 04, 2012 Rise Set
Actual Time 6:26 AM MST 6:07 PM MST
Civil Twilight 6:01 AM MST 6:32 PM MST
Nautical Twilight 5:31 AM MST 7:02 PM MST
Astronomical Twilight 5:02 AM MST 7:31 PM MST
Moon 8:56 PM MST (10/4) 10:36 AM MST (10/4)
Length of Visible Light 12h 31m
Length of Day
11h 41m
Waning Gibbous, 81% of the Moon is Illuminated
Oct 4
Waning Gibbous
Oct 8
Last Quarter
Oct 15
New
Oct 21
First Quarter
Oct 29
Full

Hourly Weather History & Observations

Time (MST) Temp. Windchill Dew Point Humidity Pressure Visibility Wind Dir Wind Speed Gust Speed Precip Events Conditions
12:15 AM 57.2 °F - 24.8 °F 29% 30.36 in 10.0 mi South 4.6 mph - N/A   Clear
12:35 AM 55.4 °F - 26.6 °F 33% 30.36 in 10.0 mi South 8.1 mph - N/A   Clear
12:55 AM 57.2 °F - 26.6 °F 31% 30.36 in 10.0 mi SSE 6.9 mph - N/A   Clear
1:15 AM 53.6 °F - 26.6 °F 35% 30.36 in 10.0 mi SSE 6.9 mph - N/A   Clear
1:35 AM 55.4 °F - 26.6 °F 33% 30.36 in 10.0 mi South 3.5 mph - N/A   Clear
1:55 AM 57.2 °F - 26.6 °F 31% 30.36 in 10.0 mi SSE 4.6 mph - N/A   Clear
2:35 AM 55.4 °F - 26.6 °F 33% 30.36 in 10.0 mi SSE 3.5 mph - N/A   Clear
2:55 AM 55.4 °F - 26.6 °F 33% 30.36 in 10.0 mi SSE 4.6 mph - N/A   Clear
3:15 AM 55.4 °F - 26.6 °F 33% 30.36 in 10.0 mi SSE 5.8 mph - N/A   Clear
3:35 AM 53.6 °F - 26.6 °F 35% 30.36 in 10.0 mi SSE 5.8 mph - N/A   Clear
3:55 AM 50.0 °F - 26.6 °F 40% 30.36 in 10.0 mi SSE 5.8 mph - N/A   Clear
4:15 AM 50.0 °F - 26.6 °F 40% 30.36 in 10.0 mi SSE 4.6 mph - N/A   Clear
4:35 AM 48.2 °F - 26.6 °F 43% 30.36 in 10.0 mi SSE 6.9 mph - N/A   Clear
4:55 AM 50.0 °F - 26.6 °F 40% 30.36 in 10.0 mi SSE 8.1 mph - N/A   Clear
5:15 AM 48.2 °F - 26.6 °F 43% 30.36 in 10.0 mi SSE 4.6 mph - N/A   Clear
5:35 AM 48.2 °F - 26.6 °F 43% 30.36 in 10.0 mi SSE 4.6 mph - N/A   Clear
5:55 AM 50.0 °F - 26.6 °F 40% 30.37 in 10.0 mi SSE 4.6 mph - N/A   Clear
6:15 AM 46.4 °F 43.5 °F 26.6 °F 46% 30.37 in 10.0 mi SSE 5.8 mph - N/A   Clear
6:35 AM 48.2 °F - 26.6 °F 43% 30.37 in 10.0 mi SSE 4.6 mph - N/A   Clear
7:15 AM 50.0 °F - 26.6 °F 40% 30.38 in 10.0 mi SSE 5.8 mph - N/A   Clear
7:35 AM 57.2 °F - 26.6 °F 31% 30.38 in 10.0 mi Calm Calm - N/A   Clear
7:55 AM 60.8 °F - 26.6 °F 27% 30.39 in 10.0 mi SW 6.9 mph - N/A   Clear
8:15 AM 64.4 °F - 32.0 °F 30% 30.39 in 10.0 mi SSW 9.2 mph - N/A   Clear
8:35 AM 64.4 °F - 32.0 °F 30% 30.39 in 10.0 mi SSW 11.5 mph 17.3 mph N/A   Clear
9:15 AM 66.2 °F - 32.0 °F 28% 30.39 in 10.0 mi SW 12.7 mph 20.7 mph N/A   Clear
9:35 AM 66.2 °F - 32.0 °F 28% 30.40 in 10.0 mi SSW 17.3 mph 24.2 mph N/A   Clear
9:55 AM 68.0 °F - 30.2 °F 24% 30.40 in 10.0 mi SSW 13.8 mph 20.7 mph N/A   Clear
10:15 AM 69.8 °F - 28.4 °F 21% 30.40 in 10.0 mi SSW 10.4 mph 23.0 mph N/A   Clear
10:35 AM 69.8 °F - 28.4 °F 21% 30.40 in 10.0 mi South 18.4 mph 23.0 mph N/A   Clear
10:55 AM 69.8 °F - 28.4 °F 21% 30.39 in 10.0 mi SSW 18.4 mph 28.8 mph N/A   Clear
11:15 AM 69.8 °F - 26.6 °F 20% 30.40 in 10.0 mi SSW 13.8 mph 29.9 mph N/A   Clear
11:35 AM 71.6 °F - 26.6 °F 19% 30.40 in 10.0 mi SW 16.1 mph 26.5 mph N/A   Clear
11:55 AM 71.6 °F - 26.6 °F 19% 30.39 in 10.0 mi SW 20.7 mph 27.6 mph N/A   Clear
12:15 PM 71.6 °F - 26.6 °F 19% 30.38 in 10.0 mi SW 15.0 mph 26.5 mph N/A   Clear
12:35 PM 71.6 °F - 24.8 °F 17% 30.38 in 10.0 mi SW 17.3 mph 26.5 mph N/A   Clear
12:55 PM 71.6 °F - 23.0 °F 16% 30.36 in 10.0 mi SW 16.1 mph 28.8 mph N/A   Clear
1:15 PM 73.4 °F - 24.8 °F 16% 30.35 in 10.0 mi SSW 18.4 mph 27.6 mph N/A   Clear
1:35 PM 73.4 °F - 23.0 °F 15% 30.34 in 10.0 mi SW 18.4 mph 29.9 mph N/A   Clear
1:55 PM 73.4 °F - 23.0 °F 15% 30.34 in 10.0 mi SSW 15.0 mph 28.8 mph N/A   Clear
2:15 PM 73.4 °F - 23.0 °F 15% 30.33 in 10.0 mi WSW 19.6 mph 25.3 mph N/A   Clear
2:35 PM 73.4 °F - 19.4 °F 13% 30.33 in 10.0 mi SW 17.3 mph 27.6 mph N/A   Clear
2:55 PM 73.4 °F - 23.0 °F 15% 30.32 in 10.0 mi WSW 18.4 mph 26.5 mph N/A   Clear
3:15 PM 73.4 °F - 23.0 °F 15% 30.32 in 10.0 mi SW 21.9 mph 28.8 mph N/A   Clear
3:35 PM 71.6 °F - 21.2 °F 15% 30.32 in 10.0 mi SSW 20.7 mph 28.8 mph N/A   Clear
3:55 PM 71.6 °F - 23.0 °F 16% 30.31 in 10.0 mi SSW 18.4 mph 26.5 mph N/A   Clear
4:15 PM 71.6 °F - 23.0 °F 16% 30.31 in 10.0 mi SSW 17.3 mph 25.3 mph N/A   Clear
4:35 PM 71.6 °F - 24.8 °F 17% 30.31 in 10.0 mi SW 17.3 mph 31.1 mph N/A   Clear
4:55 PM 69.8 °F - 24.8 °F 18% 30.31 in 10.0 mi SSW 16.1 mph 28.8 mph N/A   Clear
5:15 PM 68.0 °F - 24.8 °F 20% 30.31 in 10.0 mi SSW 18.4 mph 25.3 mph N/A   Clear
5:55 PM 66.2 °F - 24.8 °F 21% 30.32 in 10.0 mi SSW 17.3 mph 23.0 mph N/A   Clear
6:15 PM 64.4 °F - 24.8 °F 22% 30.32 in 10.0 mi SSW 13.8 mph 20.7 mph N/A   Clear
6:35 PM 64.4 °F - 24.8 °F 22% 30.33 in 10.0 mi SSW 13.8 mph - N/A   Clear
7:15 PM 62.6 °F - 26.6 °F 26% 30.33 in 10.0 mi SSW 12.7 mph 18.4 mph N/A   Clear
7:35 PM 62.6 °F - 26.6 °F 26% 30.34 in 10.0 mi SSW 8.1 mph 16.1 mph N/A   Clear
8:15 PM 59.0 °F - 26.6 °F 29% 30.34 in 10.0 mi SSW 10.4 mph - N/A   Clear
8:35 PM 57.2 °F - 26.6 °F 31% 30.34 in 10.0 mi SSW 10.4 mph - N/A   Clear
8:55 PM 57.2 °F - 28.4 °F 33% 30.34 in 10.0 mi SSW 10.4 mph - N/A   Clear
9:15 PM 59.0 °F - 28.4 °F 31% 30.34 in 10.0 mi SSW 12.7 mph 18.4 mph N/A   Clear
9:35 PM 59.0 °F - 28.4 °F 31% 30.34 in 10.0 mi SSW 9.2 mph 18.4 mph N/A   Clear
9:55 PM 59.0 °F - 26.6 °F 29% 30.34 in 10.0 mi SSW 9.2 mph 17.3 mph N/A   Clear
10:15 PM 57.2 °F - 26.6 °F 31% 30.35 in 10.0 mi SSW 8.1 mph - N/A   Clear
10:35 PM 59.0 °F - 28.4 °F 31% 30.35 in 10.0 mi SSW 9.2 mph 17.3 mph N/A   Clear
11:15 PM 57.2 °F - 28.4 °F 33% 30.35 in 10.0 mi SSW 6.9 mph - N/A   Clear
11:35 PM 57.2 °F - 28.4 °F 33% 30.35 in 10.0 mi SSW 6.9 mph - N/A   Clear
11:55 PM 55.4 °F - 28.4 °F 36% 30.35 in 10.0 mi South 5.8 mph - N/A   Clear